Regional Weather Roundup
Issued by NWS Columbia, SC

Current Version | Previous Version | Text Only | Print | Product List | Glossary On
Versions: 1 2 3 4 5 6 7 8 9 10 11 12 13 14 15 16 17 18 19 20 21 22 23 24 25 26 27
000
ASUS42 KCAE 040610
RWRCAE
REGIONAL WEATHER ROUNDUP
NATIONAL WEATHER SERVICE COLUMBIA SC
200 AM EDT TUE OCT 04 2022

NOTE: "FAIR" INDICATES FEW OR NO CLOUDS BELOW 12,000 FEET WITH NO
SIGNIFICANT WEATHER AND/OR OBSTRUCTIONS TO VISIBILITY.

NOT ALL STATIONS ARE QUALITY CONTROLLED BY THE NATIONAL
WEATHER SERVICE. USE DATA WITH CAUTION...ESPECIALLY
DEWPOINT OBSERVATIONS.

SCZ001>059-115-116-135>137-GAZ040-063>065-077-040700-
...UPSTATE SOUTH CAROLINA...

CITY           SKY/WX    TMP DP  RH WIND       PRES   REMARKS
ANDERSON       CLEAR     59  52  77 NE7       30.13F
6HR MIN TEMP:  59; 6HR MAX TEMP:  64;

LIBERTY        PTCLDY    55  51  86 MISG      30.13F
6HR MIN TEMP:  55; 6HR MAX TEMP:  64;

SPARTANBURG    PTCLDY    54  50  87 NE5       30.15S
CLEMSON        CLEAR     56  52  86 N3        30.14F
6HR MIN TEMP:  56; 6HR MAX TEMP:  67;

GREENVILLE     CLEAR     57  51  80 N6        30.15F
6HR MIN TEMP:  56; 6HR MAX TEMP:  66;

GREENWOOD      PTCLDY    51  50  96 N3        30.15S
6HR MIN TEMP:  51; 6HR MAX TEMP:  62;

GREER          CLEAR     54  51  90 NE5       30.14F
6HR MIN TEMP:  54; 6HR MAX TEMP:  64;

ROCK HILL      CLEAR     47  46  97 CALM      30.14F
6HR MIN TEMP:  47; 6HR MAX TEMP:  61;

CHESTER        CLEAR     50  48  93 N5        30.15F
LAURENS        CLEAR     52  52 100 CALM      30.14F


...CENTRAL SOUTH CAROLINA...

CITY           SKY/WX    TMP DP  RH WIND       PRES   REMARKS
COLUMBIA APT   CLEAR     56  49  77 N3        30.11F
6HR MIN TEMP:  54; 6HR MAX TEMP:  63;

COLUMBIA OWENS CLEAR     52  49  89 CALM      30.13S
6HR MIN TEMP:  52; 6HR MAX TEMP:  60;

MCENTIRE ANGB  CLEAR     48  48  99 CALM      30.10F
6HR MIN TEMP:  48; 6HR MAX TEMP:  56;

ORANGEBURG     CLEAR     54  51  90 NE5       30.11S
6HR MIN TEMP:  54; 6HR MAX TEMP:  59;

SUMTER SHAW    CLEAR     51  45  81 N6        30.10F
6HR MIN TEMP:  51; 6HR MAX TEMP:  60;

NEWBERRY       CLEAR     52  50  93 NE5       30.17
AIKEN          FAIR      50  49  95 CALM      30.12S
6HR MIN TEMP:  49; 6HR MAX TEMP:  58;

BARNWELL       FAIR      54  50  87 CALM      30.11F
MANNING        FAIR      48  48 100 CALM      30.11S
CAMDEN         FAIR      48  46  93 CALM      30.13S
LANCASTER      CLEAR     50  46  87 CALM      30.13F
WINNSBORO      CLEAR     52  46  82 CALM      30.13S


...EASTERN AND COASTAL SOUTH CAROLINA...

CITY           SKY/WX    TMP DP  RH WIND       PRES   REMARKS
MYRTLE BEACH   CLEAR     52  50  93 N7        30.08S
6HR MIN TEMP:  52; 6HR MAX TEMP:  59;

N MYRTLE BCH   CLEAR     50  49  96 N3        30.07S
6HR MIN TEMP:  50; 6HR MAX TEMP:  57;

CONWAY         FAIR      50  48  93 N3        30.09S
MARION         FAIR      50  45  81 N5        30.10S
HARTSVILLE     FAIR      50  43  76 CALM      30.11F
FLORENCE       CLEAR     51  45  79 N7        30.11S
6HR MIN TEMP:  51; 6HR MAX TEMP:  60;

DARLINGTON     CLEAR     49  45  86 N6        30.12F
6HR MIN TEMP:  49; 6HR MAX TEMP:  59;

CHARLESTON APT CLEAR     55  50  83 N10       30.08F
6HR MIN TEMP:  52; 6HR MAX TEMP:  61;

MOUNT PLEASANT FAIR      54  54 100 CALM      30.08S
WALTERBORO     CLEAR     50  50 100 CALM      30.11S
BEAUFORT       CLEAR     57  53  86 N3        30.10S
6HR MIN TEMP:  55; 6HR MAX TEMP:  63;

HILTON HEAD    CLEAR     61  55  82 NE8       30.10S


...EASTERN GEORGIA...

CITY           SKY/WX    TMP DP  RH WIND       PRES   REMARKS
AUGUSTA BUSH F CLEAR     48  48 100 CALM      30.11F FOG
6HR MIN TEMP:  47; 6HR MAX TEMP:  58;

AUGUSTA DANIEL CLEAR     56  52  86 N3        30.12S
6HR MIN TEMP:  56; 6HR MAX TEMP:  64;

THOMSON        CLEAR     51  50  96 CALM      30.13S
6HR MIN TEMP:  51; 6HR MAX TEMP:  64;

WASHINGTON     FAIR      53  51  94 CALM      30.13F
6HR MIN TEMP:  53; 6HR MAX TEMP:  63;

CLAXTON        FAIR      52  51  97 CALM      30.11S FOG
6HR MIN TEMP:  52; 6HR MAX TEMP:  64;

SYLVANIA       CLEAR     49  48  95 CALM      30.11F
6HR MIN TEMP:  49; 6HR MAX TEMP:  64;

STATESBORO     FOG       50  49  95 CALM      30.10F VSB 3/4
6HR MIN TEMP:  50; 6HR MAX TEMP:  63;

SAVANNAH       CLEAR     53  51  93 CALM      30.10S FOG
6HR MIN TEMP:  53; 6HR MAX TEMP:  63;



...SOUTHERN NORTH CAROLINA...

CITY           SKY/WX    TMP DP  RH WIND       PRES   REMARKS
CHARLOTTE      NOT AVBL
MONROE         CLEAR     50  45  83 CALM      30.12F
6HR MIN TEMP:  49; 6HR MAX TEMP:  60;

WADESBORO      CLEAR     45  43  93 CALM      30.13S
6HR MIN TEMP:  45; 6HR MAX TEMP:  61;

ROCKINGHAM     CLEAR     49  44  83 N5        30.12S
6HR MIN TEMP:  49; 6HR MAX TEMP:  61;

RUTHERFORDTON  MOCLDY    52  50  93 CALM      30.17S
ASHEVILLE      CLEAR     48  46  93 NW3       30.18S
6HR MIN TEMP:  48; 6HR MAX TEMP:  56;


$$



USA.gov is the U.S. government's official web portal to all federal, state and local government web resources and services.